RH
92 89 76 76 73 73 71 66 64 62 61 71 76 66 82 83 88 93 94 92 78 65 63 89 93 92 90 80 83 74 76 60 54 49 59 51 57 90 67 67 69 88 83
83 89 77 82 79 78 73 71 72 70 67 66 72 75 71 74 74 75 78 83 90 87 70 64 62 74 78 75 66 90 83 74 56 66 69 53 58 63 57 58 65 81 63
80 89 93 92 91 82 79 80 81 81 79 76 74 74 71 74 78 74 68 66 69 92 88 76 67 67 79 82 81 79 88 85 63 67 72 72 70 70 74 62 55 61 70
76 89 95 90 87 88 85 86 87 88 87 87 85 84 82 81 80 78 78 71 60 77 96 88 80 78 68 69 78 79 80 88 79 58 70 70 71 71 81 82 75 84 86
79 81 81 82 82 85 87 87 85 86 88 90 88 87 86 88 89 88 89 86 78 66 90 96 91 87 86 79 66 71 80 80 79 76 61 65 70 72 70 96 93 87 88
85 84 84 84 84 87 89 87 87 86 86 85 85 85 86 87 91 89 86 86 87 85 79 72 85 89 86 88 85 69 72 88 85 94 78 74 78 74 74 75 98 92 81
91 91 91 86 87 86 86 86 86 87 87 88 87 85 84 86 86 85 85 86 87 87 86 84 82 80 81 85 86 82 75 72 91 96 92 77 74 74 74 96 97 98 97
95 97 93 85 83 84 85 85 86 84 83 83 78 66 64 67 77 79 86 88 88 86 82 87 90 87 85 87 87 86 86 80 86 89 86 78 84 78 75 90 95 95 98
95 92 87 83 83 80 71 60 47 39 40 44 45 43 42 41 41 45 54 59 64 56 53 60 82 90 91 91 90 90 87 86 93 97 87 87 77 67 61 73 94 93 95
89 84 80 73 59 47 44 42 40 36 32 28 30 32 32 30 28 30 36 41 42 42 43 43 46 49 58 76 86 87 91 93 98 99 98 95 83 84 93 99 97 93 92
61 57 50 46 46 46 43 38 32 28 29 30 30 30 30 31 32 34 35 37 38 39 39 39 40 41 43 47 55 75 86 94 95 99 99 94 91 92 97 97 97 97 96
50 48 46 43 35 29 26 26 26 26 27 27 28 29 31 34 37 40 42 43 43 43 42 42 41 40 39 40 43 48 64 83 87 88 90 85 87 88 99 99 96 95 96
50 47 39 30 27 26 26 26 27 28 29 31 34 38 42 44 46 48 48 48 50 52 52 51 50 48 47 46 43 44 46 54 76 84 78 76 80 82 99 98 98 92 83
47 41 34 31 30 28 28 29 30 32 33 37 41 47 52 55 59 62 65 66 67 66 65 64 62 61 57 54 52 49 46 47 60 73 53 67 78 69 65 81 92 91 89
41 37 35 35 33 31 31 32 33 36 39 42 47 51 53 57 61 65 68 72 73 74 75 72 68 67 64 60 58 57 56 54 52 53 68 58 63 63 60 66 84 82 80
41 36 37 36 36 35 35 35 36 38 35 38 37 39 48 56 60 62 64 69 78 81 79 77 74 74 71 69 65 64 62 61 61 59 57 56 58 63 68 65 66 77 78
40 37 37 38 40 39 38 38 39 35 37 35 36 36 40 48 56 63 67 74 86 86 82 80 74 72 71 70 70 69 68 63 60 61 61 61 60 61 63 62 64 86 87
36 36 37 41 42 42 40 41 40 33 34 33 32 38 49 59 67 72 81 89 90 87 91 88 83 76 73 76 76 72 71 70 70 69 66 66 68 66 63 60 59 59 58
31 34 36 42 43 42 42 43 35 34 35 33 35 39 47 56 65 72 79 89 89 87 92 95 94 91 86 85 84 75 69 70 70 71 68 63 63 63 62 60 58 59 60
29 33 37 42 43 42 44 44 32 31 35 36 36 35 40 49 56 63 75 80 86 92 95 99 100 97 95 94 87 72 75 69 72 72 62 65 58 65 66 70 72 70 72
26 31 38 42 42 43 47 41 30 31 34 37 38 41 40 43 52 58 69 78 88 91 92 97 90 93 92 96 94 79 72 73 71 62 64 58 61 66 73 79 84 98 100
30 36 42 44 44 47 48 40 36 37 37 38 40 43 44 44 44 54 63 76 87 90 89 95 89 94 84 83 89 96 75 60 72 75 69 63 63 72 80 90 98 97 98
40 43 46 46 47 48 50 41 37 40 40 40 42 47 49 50 48 47 55 64 76 86 88 90 88 88 91 78 80 91 84 78 69 75 73 66 63 78 94 99 96 88 95
43 49 49 48 48 50 50 45 43 44 48 43 46 46 48 52 53 51 47 54 64 79 88 88 87 87 88 87 76 76 83 89 84 74 71 68 66 72 95 89 91 97 96
51 51 50 50 50 51 52 48 47 47 46 47 47 46 47 51 54 55 54 48 56 64 80 88 85 84 83 85 86 81 77 74 77 86 71 63 81 77 90 85 90 91 92
52 51 50 50 50 52 51 50 50 51 51 53 50 51 50 52 54 56 59 55 53 60 69 85 85 82 81 80 78 81 82 77 70 82 81 78 75 68 71 90 86 86 88
Wind_Speed
13 15 12 10 9 8 7 8 8 9 9 9 9 7 6 6 5 5 6 6 6 6 6 6 5 4 3 3 2 2 2 3 3 4 5 4 4 4 2 1 1 2 1
19 16 13 11 10 8 7 8 8 8 9 8 8 7 6 5 5 4 4 6 7 3 4 4 4 3 4 4 2 2 2 2 2 2 3 3 3 3 3 3 3 3 4
18 16 13 11 9 8 7 7 7 7 7 7 7 6 5 5 5 5 6 6 7 4 2 2 4 3 1 2 2 2 4 4 3 2 2 3 3 4 4 5 4 4 4
18 16 13 11 9 7 7 6 5 5 5 5 4 4 4 4 5 5 6 7 7 6 2 3 4 4 4 4 4 5 4 5 5 5 5 5 5 6 5 5 5 4 4
17 15 12 9 8 6 5 4 4 3 3 3 3 4 4 5 5 6 6 7 7 5 3 5 7 8 7 7 7 7 7 8 8 8 8 7 8 7 7 7 7 6 7
15 13 11 9 8 6 5 4 3 3 3 3 4 5 5 6 7 7 7 7 7 7 6 7 9 10 10 10 10 9 9 9 9 9 10 10 10 10 8 9 10 10 8
15 13 11 9 8 6 5 3 2 2 2 3 4 5 6 7 7 8 8 8 8 8 9 10 11 11 12 13 12 11 10 10 9 10 11 13 13 11 11 11 12 14 12
18 15 13 9 8 5 3 2 1 2 3 4 5 6 7 8 8 8 9 9 9 10 10 11 12 14 14 13 14 14 12 12 11 11 13 14 15 14 14 14 14 15 16
15 13 11 8 6 4 3 1 2 3 4 5 6 6 7 7 8 8 8 9 9 10 10 11 11 12 14 14 14 13 14 14 13 13 14 14 16 15 16 16 16 16 17
13 11 9 7 5 3 1 1 3 4 5 5 6 8 9 9 9 10 10 10 11 11 12 13 13 13 12 13 13 14 14 14 14 15 15 16 17 18 18 18 18 19 20
12 10 8 6 3 1 1 2 3 4 5 6 7 9 11 12 12 11 11 12 13 13 14 15 16 16 16 15 13 14 14 14 15 15 15 18 18 19 19 19 20 21 21
10 8 6 3 1 0 2 3 4 5 6 8 10 11 11 12 13 13 13 14 14 15 15 16 16 17 17 17 17 15 14 15 15 16 16 16 16 17 17 17 17 18 20
9 6 4 2 0 1 3 4 5 6 7 9 11 12 13 13 13 14 14 14 14 15 16 17 18 18 18 18 18 17 16 14 12 15 17 15 13 13 13 13 13 15 16
9 6 4 2 1 2 3 5 6 8 9 11 11 12 12 13 13 13 13 13 14 15 15 16 17 17 17 17 18 19 18 17 15 13 16 14 13 14 15 15 14 14 15
8 7 6 4 2 2 4 6 8 9 10 10 10 11 12 13 13 14 14 14 14 15 16 16 16 17 16 16 15 16 16 16 16 16 15 16 15 15 15 16 15 16 17
10 9 8 5 4 3 4 6 8 10 9 9 10 11 11 13 14 15 16 15 13 14 15 16 15 15 15 14 14 12 13 14 13 13 14 14 13 13 13 15 16 17 18
11 11 9 6 5 4 5 7 8 8 7 9 9 10 11 12 12 14 15 14 12 13 15 14 14 13 14 13 13 12 12 12 14 13 12 11 12 12 13 14 14 14 15
14 14 10 9 7 5 5 7 7 6 6 7 9 11 12 12 14 14 14 11 11 13 14 14 13 13 12 13 14 13 13 12 10 10 9 8 8 9 9 10 11 13 15
14 13 12 11 8 5 5 7 6 5 5 6 10 12 13 13 14 15 14 12 12 12 12 14 12 12 12 12 14 15 13 12 9 4 3 4 5 6 8 11 12 13 15
14 13 13 11 9 7 6 7 6 4 4 6 9 12 12 13 14 15 13 13 14 12 11 13 13 12 12 10 17 13 11 6 0 3 6 6 9 10 13 13 13 13 13
15 16 15 14 10 7 6 5 4 3 6 7 8 10 12 13 14 14 14 15 11 10 10 12 13 12 11 15 10 12 5 6 9 7 6 12 14 16 15 13 14 13 14
13 14 15 12 9 7 6 5 4 6 5 8 7 10 11 13 13 13 13 13 11 9 10 11 10 10 9 12 8 5 4 2 6 5 6 9 16 20 17 13 12 13 15
8 11 12 10 8 7 7 7 7 8 7 8 8 11 12 13 13 13 12 12 11 9 9 10 8 9 9 9 9 4 3 3 12 3 6 15 17 18 13 12 12 11 12
4 8 9 8 7 8 8 8 8 9 11 12 15 15 15 13 13 12 12 12 11 10 10 9 7 8 10 8 7 3 2 3 2 4 5 12 12 16 8 13 11 11 13
4 5 6 7 8 8 9 10 11 13 15 17 18 19 17 15 14 13 12 12 11 10 9 9 9 8 9 10 8 7 5 6 7 5 8 11 10 12 11 13 10 10 11
2 3 5 7 7 7 9 11 14 16 18 19 21 21 21 19 17 15 13 12 12 12 10 8 8 9 10 11 11 11 8 5 7 4 4 10 10 9 15 4 5 8 10
Wind_Direction
163 156 158 145 134 126 113 102 92 86 83 82 82 87 90 81 72 63 46 31 35 43 59 69 82 75 44 25 47 21 46 37 38 57 48 54 56 56 23 357 326 357 340
156 156 154 146 137 127 115 104 93 86 84 82 76 74 72 64 47 32 19 5 8 347 44 51 48 36 26 23 42 251 282 317 360 23 31 35 28 29 359 345 330 318 302
155 154 152 148 139 127 117 105 94 84 79 76 72 66 57 39 29 14 359 354 356 12 332 8 21 8 341 326 359 276 280 280 286 270 288 334 340 343 336 337 330 326 315
152 152 150 150 137 133 121 107 91 77 65 57 57 46 32 20 13 7 358 356 357 359 249 285 314 329 322 294 272 273 270 274 279 272 267 283 302 308 298 305 314 307 303
151 148 144 141 136 131 123 107 94 74 58 25 6 4 355 345 344 343 341 344 351 356 297 280 288 297 300 302 290 279 274 273 274 272 269 274 287 302 285 271 281 277 276
147 144 137 136 129 123 110 94 75 54 38 21 359 353 347 336 333 339 338 330 327 325 318 298 285 285 290 290 292 287 276 269 276 265 271 273 282 288 291 270 264 272 275
146 142 137 132 124 119 115 108 91 62 32 7 347 341 334 330 334 334 331 327 322 315 310 301 293 288 281 282 282 282 281 277 267 268 271 275 278 284 278 275 268 261 260
147 147 142 137 131 127 122 96 41 2 347 341 336 335 332 330 327 323 321 323 322 320 313 303 294 292 293 292 289 282 282 280 274 267 270 275 273 279 277 271 270 269 261
142 144 138 137 135 135 125 90 4 348 337 331 329 332 333 337 339 335 329 324 322 321 322 321 310 302 298 290 287 288 280 279 273 269 275 276 279 277 274 271 266 267 265
140 140 137 139 140 135 123 335 320 324 327 325 322 326 326 324 321 317 316 313 310 309 310 312 313 314 310 302 293 286 279 276 270 270 273 273 283 284 278 273 271 269 268
140 141 140 142 145 167 286 310 312 318 324 325 320 315 314 315 315 313 309 305 302 301 301 301 300 300 301 300 299 289 282 272 271 268 271 276 280 279 274 274 274 271 268
153 149 148 148 156 227 326 327 330 329 323 321 319 317 316 315 316 315 314 313 311 308 306 304 302 299 297 296 295 293 289 281 273 269 270 276 276 277 281 282 284 282 275
167 163 159 171 216 339 330 338 338 334 330 327 326 328 330 329 328 327 323 320 319 317 316 313 309 305 300 296 291 285 281 280 278 276 274 276 280 281 284 289 293 291 288
179 181 184 209 274 324 332 341 338 335 337 335 337 340 344 346 345 345 343 338 335 332 328 327 324 320 312 301 291 285 282 278 275 272 278 279 275 280 284 288 293 295 297
198 200 207 227 266 305 334 336 339 338 342 345 350 348 344 343 342 340 337 335 332 330 331 330 329 328 326 318 306 292 284 281 277 273 274 276 276 279 284 289 297 299 298
215 219 221 228 248 286 314 331 337 337 341 345 342 340 340 340 341 341 339 333 329 330 330 328 329 329 330 327 319 308 291 283 282 280 280 282 284 284 285 288 294 298 297
228 226 226 230 240 266 310 331 331 332 340 345 354 353 351 346 345 343 341 338 336 339 335 330 327 326 327 325 321 318 304 291 281 280 281 283 282 283 287 291 292 298 304
230 227 222 222 232 256 300 319 321 328 338 354 0 3 360 357 351 352 355 353 345 347 347 342 339 332 329 324 323 320 310 305 301 294 287 290 290 294 302 309 310 305 301
237 228 221 220 229 253 290 310 312 322 343 2 7 7 5 3 359 351 351 348 345 346 348 350 345 337 327 329 327 319 321 309 297 326 342 304 330 348 341 327 319 313 309
235 224 223 217 223 244 279 298 303 317 342 1 4 5 5 2 359 357 349 344 336 344 346 353 347 343 331 337 325 325 331 5 44 109 26 45 28 17 354 343 335 329 317
228 223 216 212 218 239 282 292 302 316 342 349 350 356 358 357 356 358 355 351 354 356 344 348 351 348 349 351 341 340 27 54 83 6 59 49 23 8 1 356 353 353 355
227 217 210 210 219 242 283 285 296 317 323 333 340 345 345 347 349 350 349 349 354 342 339 341 352 342 337 353 355 317 354 37 345 51 35 16 6 2 0 6 7 5 8
220 210 207 212 225 256 274 274 290 303 313 323 329 333 335 335 339 342 341 336 337 335 330 330 336 339 324 340 360 26 341 340 336 332 4 360 354 1 2 8 9 355 358
221 202 207 216 239 265 264 267 285 296 298 302 310 316 323 326 325 329 331 329 330 328 326 326 313 312 313 319 336 351 348 300 326 311 322 326 337 359 359 355 354 353 356
116 179 203 233 254 267 264 274 286 290 292 298 301 304 309 313 315 315 317 319 317 317 324 315 311 309 301 299 300 309 312 304 271 253 311 318 326 350 347 336 350 352 4
123 204 239 259 266 269 273 278 283 286 292 294 299 301 305 306 308 306 303 308 309 308 314 310 301 297 298 293 289 281 267 280 285 270 283 307 312 319 326 308 331 353 8